STARLINK-33622, 63066

Orbit data source: Space-Track

STARLINK-33622, 63066 is a payload satellite owned by SpaceX/Seattle (US) in LEO that was launched on Fri, 21 Feb 2025 UTC via an FALCON 9 launch vehicle from the Air Force Eastern Test Range (AFETR). Payload-class satellites include a variety of spacecraft equipped with specific instruments for various scientific and technological missions. These include communications satellites like Starlink; space stations such as the ISS; scientific satellites like the Hubble; Earth observation satellites from companies like Planet Labs, Umbra, and HawkEye 360; GPS; miniature CubeSats for education and research; and military/defense satellites.

Loading next visibility...
Identifier
63066, 2025-035Q
Orbit
LEO
Country
Flag of USUS
Related business
Manufacturer
SpaceX/Seattle
Mission
Operational Commercial Communications
Bus & Motor
STARLINK V2MO, Unknown motor
Mass
575 kg wet, ~530 kg dry
Launch date (UTC)
2025-02-21 (1 year ago)
Launch vehicle
FALCON 9
Launch site
Air Force Eastern Test Range (AFETR)
Object type
Payload
Rocket body
Debris
Shape & HBR
Box + 2 Pan, 17.7 m
Radar Cross Section
36.964 m², Large (>1 m²)

Expand to show TLE details & history
Last TLE update: 13 hours ago

TLE from 13 hours ago
0 STARLINK-33622
1 63066U 25035Q   26171.35177330  .00019029  00000-0  69892-3 0  9990
2 63066  43.0006 287.0283 0001669 276.9858  83.0804 15.27593845 75434
Epoch: 2026-06-20T08:26Z
TLE epoch observation values (Epoch: 2026-06-20T08:26:33.213Z)
Latitude
0.00001°
Longitude
-108.17771°
Altitude
482.645 km
Speed
7.626 km/s
True Right ascension
19h 08m 06s
True Declination
0° 00' 00"
Sunlit
Object was in full shadow at epoch
Visualization orbit readout
Latitude
Unknown
Longitude
Unknown
Altitude
Unknown
Speed
Unknown
Apparent Right ascension
Unknown
Apparent Declination
Unknown
Sunlit
N/A
Visualization observer readout
Local Sidereal Time
08:33:19
Azimuth
Unknown
Elevation
Unknown
Doppler factor
Unknown
Orbital elements
Apogee altitude
486.098 km
Perigee altitude
483.807 km
Semi-major axis
6,863.09 km
Eccentricity
0.00017
Inclination
43.0006°
RAAN
287.0283°
Arg. of periapsis
276.9858°
True anomaly
83.09939°
Mean anomaly
83.0804°
Eccentric anomaly
83.08989°
Mean motion
3.81736 °/min
Orbital period
94.31 mins
BSTAR
0.00069892
Loading maneuver chart data...
Computing Atmospheric mass density...
Loading historical data...
Loading historical data...
Loading historical data...
Loading historical data...
Loading historical data...
Loading historical data...
Loading historical data...

Documentation

Showing up to 5 results
|